Regional Weather Roundup
Issued by NWS

Home | Current Version | Previous Version | Graphics & Text | Print | Product List | Glossary On
Versions: 1 2 3 4 5 6 7 8 9 10 11 12 13 14 15 16 17 18 19 20 21 22 23 24 25 26 27 28 29 30 31 32 33 34 35 36 37 38 39 40 41 42 43 44 45 46 47 48 49 50
000
ASUS43 KDMX 280703
RWRIA

WEATHER ROUNDUP FOR IOWA
NATIONAL WEATHER SERVICE DES MOINES IA
200 AM CDT SAT MAY 28 2016

NOTE: "FAIR" INDICATES FEW OR NO CLOUDS BELOW 12,000 FEET WITH NO
SIGNIFICANT WEATHER AND/OR OBSTRUCTIONS TO VISIBILITY.

* - THESE STATIONS ARE NOT NWS STATIONS...THUS NOT UNDER NWS
QUALITY CONTROL.  THEY ALSO DO NOT REPORT WEATHER SUCH
AS PRECIPITATION OR FOG.

IAZ001>003-012>014-020>022-031>034-043>046-280800-
   NORTHWEST IOWA

CITY           SKY/WX    TMP DP  RH WIND       PRES   REMARKS
CARROLL *      CLOUDY    66  64  94 S5        29.72F
CHEROKEE *     DRIZZLE   64  64  99 S7        29.73F
DENISON *      CLOUDY    64  63  94 E6        29.69F
LE MARS *      LGT RAIN  64  63  94 CALM      29.74S
ORANGE CITY *  RAIN      64  63  94 SW10      29.74S
SHELDON *      CLOUDY    64  63  94 S9        29.72S
SIOUX CITY     LGT RAIN  63  58  83 E8        29.69F
SPENCER        LGT RAIN  65  60  84 S17       29.74S
STORM LAKE *   CLOUDY    64  64 100 SW5       29.74F
$$

IAZ055>058-069>071-079>083-090>094-280800-
   SOUTHWEST IOWA

CITY           SKY/WX    TMP DP  RH WIND       PRES   REMARKS
ATLANTIC *     CLOUDY    63  59  88 CALM      29.72F
AUDUBON *        N/A     64  61  88 SW3       29.74F
CLARINDA *       N/A     61  59  94 MISG      29.77S
COUNCIL BLFS * PTCLDY    61  61 100 E6        29.72S
CRESTON *      CLOUDY    64  63  94 SE6       29.75S
HARLAN  *      CLOUDY    63  61  94 CALM      29.75F
LAMONI         CLOUDY    63  62  97 CALM      29.73F
RED OAK *      RAIN      61  59  94 S6        29.75R
SHENANDOAH *   CLOUDY    61  61 100 E9        29.73F
$$

IAZ047>049-059>061-072>074-084-280800-
   CENTRAL IOWA

CITY           SKY/WX    TMP DP  RH WIND       PRES   REMARKS
AMES           LGT RAIN  65  65 100 CALM      29.72F FOG
ANKENY *       MOCLDY    64  64 100 S5        29.72F
BOONE *          N/A     64  64 100 CALM      29.72F
CHARITON *     CLOUDY    64  64 100 SE5       29.75F
DES MOINES     LGT RAIN  65  61  87 S5        29.73F
GRINNELL*      RAIN      64  59  82 E3        29.74S
KNOXVILLE *    CLOUDY    63  61  94 SW6       29.74S
MARSHALLTOWN   LGT RAIN  66  65  96 E6        29.72F
NEWTON *       CLOUDY    64  64 100 SE12      29.74S FOG
PELLA *        LGT RAIN  63  61  94 CALM      29.76S
PERRY *        CLOUDY    66  64  94 CALM      29.72F
$$

IAZ004>006-015-016-023>025-035-036-280800-
   NORTH CENTRAL IOWA

CITY           SKY/WX    TMP DP  RH WIND       PRES   REMARKS
ALGONA *       CLOUDY    66  63  88 S12       29.75F
CLARION *      CLOUDY    64  63  94 CALM      29.75F
ESTHERVILLE    CLOUDY    66  61  84 S13       29.75R
FORT DODGE *   CLOUDY    64  61  88 CALM      29.75F
MASON CITY     CLOUDY    63  62  97 CALM      29.77F
FOREST CITY *  DRIZZLE   61  61 100 CALM      29.76S
WEBSTER CITY * CLOUDY    64  63  94 CALM      29.72F
IOWA FALLS *   LGT RAIN  66  64  94 N3        29.75F
$$

IAZ007>011-017>019-026>030-037>042-050>054-066-280800-
   NORTHEAST IOWA

CITY           SKY/WX    TMP DP  RH WIND       PRES   REMARKS
CEDAR RAPIDS   RAIN      64  64 100 W6        29.73F FOG
CHARLES CITY * DRIZZLE   64  64 100 W6        29.77S
CLINTON *      CLOUDY    70  67  90 S14       29.75F
DECORAH *      CLOUDY    66  66 100 E6        29.74R
DUBUQUE        CLOUDY    69  67  93 S22G28    29.73F
MONTICELLO *   CLOUDY    64  63  94 CALM      29.73F
OELWEIN *      LGT RAIN  66  66 100 W3        29.74F
WATERLOO       LGT RAIN  66  65  96 W3        29.72F FOG
$$

IAZ064-065-067-068-078-280800-
   EAST CENTRAL IOWA

CITY           SKY/WX    TMP DP  RH WIND       PRES   REMARKS
DAVENPORT      CLOUDY    69  65  86 S13G25    29.74F
IOWA CITY      LGT RAIN  65  63  93 CALM      29.74F
MT. PLEASANT * LGT RAIN  66  66 100 E9        29.74F
MUSCATINE *    CLOUDY    64  63  94 E3        29.75S
QUAD CITIES    CLOUDY    71  65  81 S13       29.74F
$$

IAZ062-063-075>077-085>089-095>099-280800-
   SOUTHEAST IOWA

CITY           SKY/WX    TMP DP  RH WIND       PRES   REMARKS
BURLINGTON     CLOUDY    68  67  96 S12       29.75S
FAIRFIELD *      N/A    N/A N/A N/A MISG        N/A
FORT MADISON * CLOUDY    66  66 100 S12G20    29.75F
KEOKUK *       CLOUDY    68  68 100 S13G22    29.75S FOG
OSKALOOSA *    HVY RAIN  63  61  96 W10       29.77R
OTTUMWA        HVY RAIN  63  62  97 W3        29.76R FOG
WASHINGTON *   CLOUDY    64 N/A N/A E10       29.74F
$$

ABBREVIATIONS USED IN REMARKS
   TC - TEMPERATURES IN CELSIUS
  WCI - WIND CHILL INDEX
   HX - HEAT INDEX
  VSB - VISIBILITY
$$





USA.gov is the U.S. government's official web portal to all federal, state and local government web resources and services.